Location: Huntsville
(41.2590°N, 111.7678°W)
Time: 20:00:01
(UTC+00:00)

N. Korean satellite - Pass Details

Date: 07 December 2021
Orbit: 446 x 492 km, 97.3° (Epoch: 18 January)

Event Time Altitude Azimuth Distance (km) Brightness Sun altitude
Rises 12:44:29 0° 11° (N) 2,458 10.1 -20.9°
Reaches altitude 10° 12:46:31 10° 11° (N) 1,580 9.1 -20.6°
Maximum altitude 12:49:54 86° 285° (WNW) 454 6.2 -19.9°
Drops below altitude 10° 12:53:16 10° 194° (SSW) 1,571 9.1 -19.3°
Sets 12:55:17 0° 194° (SSW) 2,441 10.1 -19.0°
